This demonstration page uses our WeatherBlox Daily Observations layout. Learn more.

Left ArrowRight Arrow

Hourly Observations for November 25, 2020

Temp ( °F °C ) Dew Point ( °F °C ) Humidity (%) Winds ( mph kmh ) Pressure ( in mb ) Visibility ( mi km ) Precip ( " mm )
12:52 am 00:52 Cloudy 37 2.8 34 1.1 89 89 N 13 20 29.84 1010 10 16 0.00 0.00
1:52 am 01:52 Cloudy 37 2.8 34 1.1 89 89 NNW 14 22 29.83 1010 10 16 0.00 0.00
2:52 am 02:52 Cloudy 37 2.8 34 1.1 89 89 NNW 21 33 29.82 1010 10 16 0.00 0.00
3:52 am 03:52 Cloudy 37 2.8 35 1.7 93 93 N 15 24 29.82 1010 10 16 0.00 0.00
4:52 am 04:52 Cloudy 36 2.2 33 0.6 89 89 N 16 26 29.85 1011 10 16 0.00 0.00
5:34 am 05:34 Cloudy 36 2.2 33 0.6 89 89 NNW 17 28 29.89 1012 10 16 0.00 0.00
5:50 am 05:50 Cloudy 36 2 34 1 93 93 NNW 16 26 29.89 1012 10 16 0.00 0.00
5:52 am 05:52 Cloudy 36 2.2 33 0.6 89 89 NNW 15 24 29.88 1012 10 16 0.00 0.00
6:52 am 06:52 Cloudy 36 2.2 33 0.6 89 89 NNW 13 20 29.91 1013 10 16 0.00 0.00
7:52 am 07:52 Cloudy 36 2.2 32 0 86 86 NW 10 17 29.93 1014 10 16 0.00 0.00
8:52 am 08:52 Cloudy 37 2.8 31 -0.6 79 79 NNW 14 22 29.93 1014 10 16 0.00 0.00
9:52 am 09:52 Cloudy 37 2.8 32 0 82 82 NNW 14 22 29.94 1014 10 16 0.00 0.00
10:52 am 10:52 Cloudy 39 3.9 33 0.6 79 79 NW 14 22 29.94 1014 10 16 0.00 0.00
11:52 am 11:52 Cloudy 40 4.4 32 0 73 73 NNW 13 20 29.94 1014 10 16 0.00 0.00
12:52 pm 12:52 Cloudy 39 3.9 31 -0.6 73 73 NW 12 19 29.93 1014 10 16 0.00 0.00
1:52 pm 13:52 Cloudy 38 3.3 32 0 79 79 NNW 12 19 29.92 1013 10 16 0.00 0.00
2:52 pm 14:52 Cloudy 38 3.3 31 -0.6 76 76 N 7 11 29.92 1013 10 16 0.00 0.00
3:52 pm 15:52 Cloudy 38 3.3 30 -1.1 73 73 NW 5 7 29.93 1014 10 16 0.00 0.00
6:14 pm 18:14 Cloudy 35 1.7 30 -1.1 82 82 Calm 29.98 1015 10 16 0.00 0.00
6:52 pm 18:52 Cloudy 35 1.7 30 -1.1 82 82 WSW 3 6 29.96 1015 10 16 0.00 0.00
7:52 pm 19:52 Cloudy 34 1.1 29 -1.7 82 82 S 9 15 29.96 1015 10 16 0.00 0.00
8:21 pm 20:21 Partly Cloudy 33 0.6 29 -1.7 85 85 SSE 10 17 29.98 1015 10 16 0.00 0.00
8:52 pm 20:52 Partly Cloudy 33 0.6 29 -1.7 85 85 S 5 7 29.97 1015 10 16 0.00 0.00
9:52 pm 21:52 Mostly Clear 31 -0.6 28 -2.2 89 89 SSE 9 15 29.98 1015 10 16 0.00 0.00
10:52 pm 22:52 Clear 30 -1.1 28 -2.2 92 92 SSE 8 13 29.98 1015 10 16 0.00 0.00
11:52 pm 23:52 Clear 29 -1.7 28 -2.2 96 96 SSE 8 13 29.97 1015 10 16 0.00 0.00

Powered by AerisWeather